[Date Prev][Date Next][Thread Prev][Thread Next] - [Date Index][Thread Index][Author Index]

2 Line ISS Keps 6-29



ISS
1 25544U 98067A   04180.47881944  .00013608  00000-0  11829-3 0   924
2 25544  51.6319 268.1612 0005425 299.0332  95.3452 15.69395970320093

----
Via the sarex mailing list at AMSAT.ORG courtesy of AMSAT-NA.
To unsubscribe, send "unsubscribe sarex" to Majordomo@amsat.org



AMSAT Top AMSAT Home